FW4315 Weather Reports


Display with metric or nautical units.
time (UTC)temp
F
wind
direction
speed
MPH
gust
MPH
rain 1hr
in
rain 24hr
in
rain mn
in
humidity
%
barometer
mb
20260508080904 52 207 6.0 11.0 0.00 0.02 0.02 89
20260508080005 52 201 5.0 10.0 0.00 0.02 0.02 90
20260508075424 51 203 5.0 10.0 0.00 0.02 0.02 90
20260508074504 50 208 5.0 10.0 0.00 0.02 0.02 91
20260508073604 50 217 7.0 12.0 0.00 0.02 0.02 92
20260508072704 50 222 5.0 11.0 0.00 0.02 0.02 93
20260508071825 49 234 4.0 10.0 0.00 0.02 0.02 93
20260508070903 49 237 2.0 7.0 0.00 0.02 0.02 94
20260508070005 49 274 2.0 5.0 0.00 0.02 0.02 94
20260508065404 49 262 2.0 5.0 0.00 0.02 0.02 94
20260508064504 49 249 3.0 7.0 0.00 0.02 0.02 93
20260508063604 49 245 3.0 7.0 0.00 0.02 0.02 93
20260508062704 49 245 2.0 4.0 0.00 0.02 0.02 93
20260508061804 49 247 3.0 9.0 0.00 0.02 0.02 93
20260508060925 49 226 4.0 9.0 0.00 0.02 0.02 94
20260508060025 48 202 2.0 6.0 0.00 0.02 0.02 95
20260508055403 48 227 1.0 4.0 0.00 0.02 0.02 94
20260508054503 47 246 0.0 3.0 0.00 0.02 0.02 94
20260508053604 47 253 0.0 3.0 0.01 0.02 0.02 94
20260508052704 48 255 0.0 3.0 0.01 0.02 0.02 94
20260508051804 48 107 0.0 2.0 0.01 0.02 0.02 94
20260508050903 48 70 0.0 3.0 0.01 0.02 0.02 94
20260508050004 48 17 0.0 2.0 0.01 0.02 0.02 93
20260508045425 48 32 1.0 3.0 0.01 0.02 0.02 93
20260508044504 48 50 1.0 3.0 0.01 0.02 0.02 93
20260508043604 48 34 0.0 1.0 0.01 0.02 0.02 93
20260508042704 48 292 0.0 2.0 0.02 0.02 0.02 93
20260508041803 48 245 0.0 3.0 0.02 0.02 0.02 93
20260508040903 49 333 2.0 4.0 0.02 0.02 0.02 92
20260508040004 49 327 1.0 3.0 0.02 0.02 0.02 92
20260508035403 49 328 0.0 2.0 0.02 0.02 0.02 92
20260508034503 49 225 0.0 4.0 0.02 0.02 0.02 92
20260508033603 49 206 1.0 4.0 0.01 0.01 0.01 92
20260508032704 49 186 2.0 5.0 0.00 0.00 0.00 93
20260508031804 48 208 2.0 5.0 0.00 0.00 0.00 93
20260508030925 48 207 1.0 4.0 0.00 0.00 0.00 93
20260508030025 48 244 0.0 3.0 0.00 0.00 0.00 93
20260508025404 48 316 0.0 2.0 0.00 0.00 0.00 93
20260508024524 48 238 1.0 3.0 0.00 0.00 0.00 93
20260508023604 48 270 2.0 4.0 0.00 0.00 0.00 92
20260508022724 48 281 2.0 4.0 0.00 0.00 0.00 92
20260508021803 48 267 2.0 5.0 0.00 0.00 0.00 92
20260508020903 48 251 2.0 5.0 0.00 0.00 0.00 92
20260508020004 48 251 2.0 5.0 0.00 0.00 0.00 92
20260508015404 48 239 3.0 7.0 0.00 0.00 0.00 92
20260508014504 48 247 2.0 4.0 0.00 0.00 0.00 91
20260508013604 48 232 1.0 4.0 0.00 0.00 0.00 92
20260508012725 49 281 0.0 3.0 0.00 0.00 0.00 91
20260508011803 49 253 1.0 4.0 0.00 0.00 0.00 91
20260508010904 49 267 2.0 3.0 0.00 0.00 0.00 91
20260508010004 49 260 2.0 4.0 0.00 0.00 0.00 91
20260508005403 49 264 2.0 4.0 0.00 0.00 0.00 90
20260508004503 49 254 1.0 3.0 0.00 0.00 0.00 90
20260508003603 50 299 0.0 2.0 0.00 0.00 0.00 90
20260508002704 50 314 1.0 3.0 0.00 0.00 0.00 89
20260508001804 50 251 2.0 5.0 0.00 0.00 0.00 89
20260508000903 50 236 3.0 8.0 0.00 0.00 0.00 89
20260508000017 50 245 3.0 5.0 0.00 0.00 0.00 89
20260507235403 50 263 2.0 5.0 0.00 0.00 0.00 89
20260507234504 50 274 1.0 3.0 0.00 0.00 0.00 89
20260507233604 50 316 1.0 4.0 0.00 0.00 0.00 88
20260507232703 50 280 2.0 4.0 0.00 0.00 0.00 88
20260507231804 50 283 2.0 5.0 0.00 0.00 0.00 88
20260507230904 49 296 3.0 5.0 0.00 0.00 0.00 88
20260507230025 49 282 3.0 6.0 0.00 0.00 0.00 87
20260507225404 49 266 3.0 6.0 0.00 0.00 0.00 87
20260507224504 50 259 3.0 4.0 0.00 0.00 0.00 86
20260507223604 50 279 3.0 5.0 0.00 0.00 0.00 86
20260507222703 50 271 4.0 5.0 0.00 0.00 0.00 85
20260507221803 50 256 2.0 5.0 0.00 0.00 0.00 85
20260507220925 50 246 1.0 4.0 0.00 0.00 0.00 84
20260507220004 51 232 0.0 2.0 0.00 0.00 0.00 83
20260507215404 52 114 0.0 2.0 0.00 0.00 0.00 82
20260507214504 52 122 1.0 4.0 0.00 0.00 0.00 82
20260507213603 52 281 0.0 2.0 0.00 0.00 0.00 82
20260507212704 52 307 2.0 6.0 0.00 0.00 0.00 81
20260507211804 53 310 4.0 7.0 0.00 0.00 0.00 80
20260507210924 53 279 3.0 6.0 0.00 0.00 0.00 79
20260507210005 54 273 2.0 4.0 0.00 0.00 0.00 78
20260507205404 54 278 1.0 4.0 0.00 0.00 0.00 78
20260507204503 53 275 2.0 6.0 0.00 0.00 0.00 79
20260507203604 53 267 3.0 5.0 0.00 0.00 0.00 79
20260507202703 53 258 4.0 8.0 0.00 0.00 0.00 79
20260507201804 54 245 3.0 7.0 0.00 0.00 0.00 79
20260507200924 55 245 2.0 5.0 0.00 0.00 0.00 77
20260507200004 55 296 1.0 3.0 0.00 0.00 0.00 76
20260507195404 56 268 2.0 6.0 0.00 0.00 0.00 75
20260507194503 56 292 2.0 5.0 0.00 0.00 0.00 74
20260507193625 57 322 2.0 3.0 0.00 0.00 0.00 71
20260507192724 57 335 3.0 6.0 0.00 0.00 0.00 71
20260507191803 58 11 1.0 5.0 0.00 0.00 0.00 69
20260507190903 59 9 1.0 3.0 0.00 0.00 0.00 69
20260507190024 59 318 1.0 3.0 0.00 0.00 0.00 69
20260507185404 60 345 1.0 3.0 0.00 0.00 0.00 69
20260507184504 60 334 1.0 3.0 0.00 0.00 0.00 68
20260507183603 60 318 1.0 3.0 0.00 0.00 0.00 66
20260507182703 60 336 3.0 4.0 0.00 0.00 0.00 64
20260507181804 61 327 2.0 4.0 0.00 0.00 0.00 63
20260507180903 62 356 3.0 5.0 0.00 0.00 0.00 61
20260507180004 63 348 4.0 9.0 0.00 0.00 0.00 57
20260507175403 64 324 4.0 9.0 0.00 0.00 0.00 54
20260507174504 66 313 3.0 6.0 0.00 0.00 0.00 49
20260507173604 66 353 2.0 6.0 0.00 0.00 0.00 49
20260507172725 66 12 3.0 7.0 0.00 0.00 0.00 50
20260507171804 66 16 4.0 6.0 0.00 0.00 0.00 50
20260507170904 65 4 4.0 6.0 0.00 0.00 0.00 50
20260507170005 65 344 3.0 6.0 0.00 0.00 0.00 52
20260507165405 64 338 2.0 4.0 0.00 0.00 0.00 49
20260507164504 64 326 3.0 5.0 0.00 0.00 0.00 57
20260507163604 64 318 4.0 7.0 0.00 0.00 0.00 51
20260507162704 65 300 4.0 8.0 0.00 0.00 0.00 50
20260507161804 66 313 3.0 8.0 0.00 0.00 0.00 47
20260507160925 66 360 1.0 4.0 0.00 0.00 0.00 49
20260507160025 64 53 1.0 4.0 0.00 0.00 0.00 51
20260507155404 63 28 0.0 3.0 0.00 0.00 0.00 53
20260507154525 62 346 1.0 3.0 0.00 0.00 0.00 55
20260507153604 62 341 3.0 5.0 0.00 0.00 0.00 56
20260507152704 62 307 5.0 7.0 0.00 0.00 0.00 56
20260507151804 62 249 5.0 11.0 0.00 0.00 0.00 56
20260507150904 63 234 5.0 11.0 0.00 0.00 0.00 55
20260507150005 63 212 5.0 12.0 0.00 0.00 0.00 52
20260507145404 62 204 6.0 12.0 0.00 0.00 0.00 52
20260507144505 62 210 8.0 14.0 0.00 0.00 0.00 56
20260507143605 63 222 9.0 19.0 0.00 0.00 0.00 51
20260507142704 64 249 6.0 15.0 0.00 0.00 0.00 53
20260507141804 64 265 7.0 14.0 0.00 0.00 0.00 51
20260507140925 64 273 7.0 15.0 0.00 0.00 0.00 51
20260507140005 64 271 10.0 19.0 0.00 0.00 0.00 53
20260507135404 64 273 11.0 20.0 0.00 0.00 0.00 51
20260507134505 63 297 8.0 17.0 0.00 0.00 0.00 53
20260507133604 62 293 8.0 18.0 0.00 0.00 0.00 54
20260507132704 62 304 10.0 18.0 0.00 0.00 0.00 50
20260507131804 62 305 12.0 22.0 0.00 0.00 0.00 54
20260507130904 62 310 13.0 22.0 0.00 0.00 0.00 54
20260507130004 61 306 10.0 18.0 0.00 0.00 0.00 55
20260507125404 61 302 10.0 18.0 0.00 0.00 0.00 54
20260507124504 63 235 7.0 19.0 0.00 0.00 0.00 51
20260507123604 64 222 8.0 15.0 0.00 0.00 0.00 51
20260507122705 66 237 7.0 16.0 0.00 0.00 0.00 51
20260507121804 66 200 8.0 13.0 0.00 0.00 0.00 43
20260507120904 64 237 5.0 10.0 0.00 0.00 0.00 54
20260507120006 63 259 5.0 11.0 0.00 0.00 0.00 50
20260507115404 64 253 6.0 11.0 0.00 0.00 0.00 52
20260507114504 64 226 7.0 14.0 0.00 0.00 0.00 49
20260507113625 64 243 5.0 14.0 0.00 0.00 0.00 50
20260507112704 64 237 6.0 16.0 0.00 0.00 0.00 54
20260507111804 63 251 6.0 12.0 0.00 0.00 0.00 63
20260507110925 63 267 6.0 13.0 0.00 0.00 0.00 61
20260507110004 62 259 6.0 14.0 0.00 0.00 0.00 59
20260507105404 62 277 4.0 10.0 0.00 0.00 0.00 60
20260507104505 61 183 3.0 8.0 0.00 0.00 0.00 59
20260507103625 61 206 5.0 9.0 0.00 0.00 0.00 61
20260507102726 60 208 4.0 9.0 0.00 0.00 0.00 60
20260507101804 59 264 3.0 7.0 0.00 0.00 0.00 62
20260507100904 59 266 3.0 7.0 0.00 0.00 0.00 66
20260507100005 60 233 3.0 6.0 0.00 0.00 0.00 61
20260507095404 59 213 2.0 6.0 0.00 0.00 0.00 64
20260507094504 59 273 3.0 9.0 0.00 0.00 0.00 69
20260507093625 59 292 3.0 9.0 0.00 0.00 0.00 73
20260507092704 58 358 3.0 6.0 0.00 0.00 0.00 73
20260507091804 58 330 3.0 6.0 0.00 0.00 0.00 73
20260507090904 57 288 2.0 5.0 0.00 0.00 0.00 74
20260507090005 56 141 1.0 4.0 0.00 0.00 0.00 75
20260507085403 56 155 2.0 5.0 0.00 0.00 0.00 75
20260507084504 55 210 1.0 5.0 0.00 0.00 0.00 78
20260507083604 54 211 1.0 7.0 0.00 0.00 0.00 79
20260507082704 53 106 1.0 3.0 0.00 0.00 0.00 83
20260507081804 51 32 0.0 3.0 0.00 0.00 0.00 81